| time (UTC) | temp F | wind direction | speed MPH | gust MPH | rain 1hr in | rain 24hr in | rain mn in | humidity % | barometer mb |
| 20260504044538 | 50 | 200 | 0.0 | 0.0 | 0.00 | 0.00 | 0.00 | 69 | 1017.6 |
| 20260504043033 | 51 | 200 | 0.0 | 0.0 | 0.00 | 0.00 | 0.00 | 69 | 1017.8 |
| 20260504041526 | 51 | 201 | 0.0 | 0.0 | 0.00 | 0.00 | 0.00 | 67 | 1017.9 |
| 20260504040026 | 52 | 202 | 0.0 | 1.0 | 0.00 | 0.00 | 0.00 | 65 | 1017.9 |
| 20260504034535 | 52 | 204 | 0.0 | 2.0 | 0.00 | 0.00 | 0.00 | 64 | 1017.8 |
| 20260504033035 | 53 | 203 | 0.0 | 3.0 | 0.00 | 0.00 | 0.00 | 64 | 1017.8 |
| 20260504031525 | 53 | 205 | 1.0 | 3.0 | 0.00 | 0.00 | 0.00 | 64 | 1017.9 |
| 20260504030024 | 53 | 208 | 0.0 | 1.0 | 0.00 | 0.00 | 0.00 | 64 | 1018.0 |
| 20260504024510 | 54 | 208 | 0.0 | 2.0 | 0.00 | 0.00 | 0.00 | 63 | 1017.7 |
| 20260504023005 | 54 | 180 | 0.0 | 2.0 | 0.00 | 0.00 | 0.00 | 64 | 1017.6 |
| 20260504021548 | 53 | 180 | 0.0 | 3.0 | 0.00 | 0.00 | 0.00 | 64 | 1017.6 |
| 20260504020048 | 53 | 180 | 0.0 | 2.0 | 0.00 | 0.00 | 0.00 | 66 | 1017.6 |
| 20260504014530 | 53 | 179 | 0.0 | 1.0 | 0.00 | 0.00 | 0.00 | 64 | 1017.5 |
| 20260504013035 | 54 | 180 | 0.0 | 1.0 | 0.00 | 0.00 | 0.00 | 64 | 1017.3 |
| 20260504011512 | 54 | 178 | 0.0 | 0.0 | 0.00 | 0.00 | 0.00 | 62 | 1017.2 |
| 20260504010011 | 55 | 173 | 0.0 | 0.0 | 0.00 | 0.00 | 0.00 | 63 | 1017.1 |
| 20260504004554 | 56 | 171 | 0.0 | 0.0 | 0.00 | 0.00 | 0.00 | 62 | 1017.0 |
| 20260504003053 | 57 | 175 | 0.0 | 0.0 | 0.00 | 0.00 | 0.00 | 61 | 1016.9 |
| 20260504001541 | 59 | 169 | 0.0 | 0.0 | 0.00 | 0.00 | 0.00 | 58 | 1017.0 |
| 20260504000039 | 60 | 169 | 0.0 | 1.0 | 0.00 | 0.00 | 0.00 | 57 | 1017.0 |
| 20260503234518 | 61 | 169 | 0.0 | 2.0 | 0.00 | 0.00 | 0.00 | 52 | 1017.0 |
| 20260503233017 | 62 | 170 | 1.0 | 3.0 | 0.00 | 0.00 | 0.00 | 52 | 1017.0 |
| 20260503231558 | 63 | 163 | 0.0 | 2.0 | 0.00 | 0.00 | 0.00 | 55 | 1017.1 |
| 20260503230058 | 63 | 163 | 0.0 | 2.0 | 0.00 | 0.00 | 0.00 | 51 | 1017.1 |
| 20260503224539 | 64 | 163 | 0.0 | 4.0 | 0.00 | 0.00 | 0.00 | 48 | 1017.2 |
| 20260503223042 | 65 | 331 | 0.0 | 0.0 | 0.00 | 0.00 | 0.00 | 51 | 1017.3 |
| 20260503221530 | 66 | 329 | 0.0 | 4.0 | 0.00 | 0.00 | 0.00 | 46 | 1017.2 |
| 20260503220021 | 66 | 246 | 1.0 | 3.0 | 0.00 | 0.00 | 0.00 | 46 | 1017.2 |
| 20260503214502 | 67 | 5 | 1.0 | 8.0 | 0.00 | 0.00 | 0.00 | 47 | 1017.4 |
| 20260503213002 | 68 | 45 | 1.0 | 5.0 | 0.00 | 0.00 | 0.00 | 47 | 1017.5 |
| 20260503211609 | 67 | 200 | 0.0 | 2.0 | 0.00 | 0.00 | 0.00 | 46 | 1017.7 |
| 20260503210040 | 68 | 200 | 1.0 | 4.0 | 0.00 | 0.00 | 0.00 | 46 | 1017.9 |
| 20260503204538 | 67 | 188 | 1.0 | 9.0 | 0.00 | 0.00 | 0.00 | 46 | 1018.1 |
| 20260503203019 | 67 | 199 | 1.0 | 3.0 | 0.00 | 0.00 | 0.00 | 44 | 1018.4 |
| 20260503201527 | 67 | 235 | 2.0 | 6.0 | 0.00 | 0.00 | 0.00 | 44 | 1018.7 |
| 20260503200058 | 66 | 221 | 2.0 | 9.0 | 0.00 | 0.00 | 0.00 | 45 | 1019.0 |
| 20260503194556 | 67 | 46 | 0.0 | 4.0 | 0.00 | 0.00 | 0.00 | 44 | 1019.2 |
| 20260503193041 | 66 | 218 | 2.0 | 7.0 | 0.00 | 0.00 | 0.00 | 43 | 1019.5 |
| 20260503191536 | 65 | 84 | 1.0 | 6.0 | 0.00 | 0.00 | 0.00 | 42 | 1019.6 |
| 20260503190020 | 64 | 123 | 0.0 | 3.0 | 0.00 | 0.00 | 0.00 | 48 | 1019.8 |
| 20260503184520 | 65 | 87 | 1.0 | 5.0 | 0.00 | 0.00 | 0.00 | 42 | 1019.9 |
| 20260503183059 | 66 | 91 | 1.0 | 3.0 | 0.00 | 0.00 | 0.00 | 43 | 1020.0 |
| 20260503181619 | 64 | 61 | 0.0 | 3.0 | 0.00 | 0.00 | 0.00 | 43 | 1020.2 |
| 20260503180031 | 63 | 199 | 1.0 | 5.0 | 0.00 | 0.00 | 0.00 | 44 | 1020.3 |
| 20260503174529 | 62 | 207 | 1.0 | 4.0 | 0.00 | 0.00 | 0.00 | 47 | 1020.6 |
| 20260503173037 | 61 | 184 | 3.0 | 7.0 | 0.00 | 0.00 | 0.00 | 49 | 1020.7 |
| 20260503171514 | 62 | 340 | 2.0 | 5.0 | 0.00 | 0.00 | 0.00 | 48 | 1021.0 |
| 20260503120106 | 42 | 165 | 0.0 | 0.0 | 0.00 | 0.00 | 0.00 | 94 | 1021.1 |
| 20260503081505 | 42 | 165 | 0.0 | 0.0 | 0.00 | 0.00 | 0.00 | 88 | 1019.0 |
| 20260503071537 | 44 | 165 | 0.0 | 0.0 | 0.00 | 0.00 | 0.00 | 86 | 1018.6 |
| 20260503054537 | 45 | 168 | 0.0 | 0.0 | 0.00 | 0.00 | 0.00 | 83 | 1018.3 |
| 20260503053030 | 45 | 167 | 0.0 | 0.0 | 0.00 | 0.00 | 0.00 | 83 | 1018.4 |
| 20260503051517 | 45 | 169 | 0.0 | 0.0 | 0.00 | 0.00 | 0.00 | 82 | 1018.2 |